Time,TemperatureF,DewpointF,PressureIn,WindDirection,WindDirectionDegrees,WindSpeedMPH,WindSpeedGustMPH,Humidity,HourlyPrecipIn,Conditions,Clouds,dailyrainin,SoftwareType,DateUTC
2013-06-14 00:00:00,62.8,62.2,29.85,West,270,0.0,-999.0,98,-99.99,,,0.00,Acu-Link.com,2013-06-14 04:00:00,
2013-06-14 00:16:00,62.2,61.6,29.84,NE,45,0.0,-999.0,98,-99.99,,,0.00,Acu-Link.com,2013-06-14 04:16:00,
2013-06-14 00:32:00,61.7,61.1,29.83,West,270,0.0,-999.0,98,-99.99,,,0.00,Acu-Link.com,2013-06-14 04:32:00,
2013-06-14 00:48:00,60.8,60.2,29.84,SSW,202,0.0,-999.0,98,-99.99,,,0.00,Acu-Link.com,2013-06-14 04:48:00,
2013-06-14 01:03:00,60.8,60.2,29.83,NE,45,0.0,-999.0,98,-99.99,,,0.00,Acu-Link.com,2013-06-14 05:03:00,
2013-06-14 01:30:00,60.6,60.0,29.83,ESE,112,0.0,-999.0,98,-99.99,,,0.00,Acu-Link.com,2013-06-14 05:30:00,
2013-06-14 01:46:00,59.4,58.8,29.83,West,270,0.0,-999.0,98,-99.99,,,0.00,Acu-Link.com,2013-06-14 05:46:00,
2013-06-14 02:06:00,58.8,58.2,29.83,West,270,0.0,-999.0,98,-99.99,,,0.00,Acu-Link.com,2013-06-14 06:06:00,
2013-06-14 02:32:00,58.8,58.2,29.82,NE,45,0.0,-999.0,98,-99.99,,,0.00,Acu-Link.com,2013-06-14 06:32:00,
2013-06-14 02:49:00,57.6,57.0,29.82,West,270,0.0,-999.0,98,-99.99,,,0.00,Acu-Link.com,2013-06-14 06:49:00,
2013-06-14 03:05:00,57.0,56.4,29.82,West,270,0.0,-999.0,98,-99.99,,,0.00,Acu-Link.com,2013-06-14 07:05:00,
2013-06-14 03:21:00,56.5,55.9,29.82,SW,225,0.0,-999.0,98,-99.99,,,0.00,Acu-Link.com,2013-06-14 07:21:00,
2013-06-14 05:20:00,55.0,54.4,29.86,West,270,0.0,-999.0,98,-99.99,,,0.00,Acu-Link.com,2013-06-14 09:20:00,
2013-06-14 05:56:00,55.4,54.8,29.88,West,270,0.0,-999.0,98,-99.99,,,0.00,Acu-Link.com,2013-06-14 09:56:00,
2013-06-14 06:21:00,55.4,54.8,29.88,West,270,0.0,-999.0,98,-99.99,,,0.00,Acu-Link.com,2013-06-14 10:21:00,
2013-06-14 06:43:00,55.4,54.8,29.88,SSE,157,0.0,-999.0,98,-99.99,,,0.00,Acu-Link.com,2013-06-14 10:43:00,
2013-06-14 06:59:00,55.6,55.0,29.89,WNW,292,0.0,-999.0,98,-99.99,,,0.00,Acu-Link.com,2013-06-14 10:59:00,
2013-06-14 07:31:00,57.6,57.0,29.89,SSW,202,0.0,-999.0,98,-99.99,,,0.00,Acu-Link.com,2013-06-14 11:31:00,
2013-06-14 07:49:00,61.0,60.4,29.91,West,270,0.0,-999.0,98,-99.99,,,0.00,Acu-Link.com,2013-06-14 11:49:00,
2013-06-14 08:04:00,66.0,65.4,29.91,NW,315,0.0,-999.0,98,-99.99,,,0.00,Acu-Link.com,2013-06-14 12:04:00,
2013-06-14 08:20:00,70.5,64.7,29.91,ENE,67,0.0,-999.0,82,-99.99,,,0.00,Acu-Link.com,2013-06-14 12:20:00,
2013-06-14 08:37:00,72.1,65.2,29.91,ENE,67,0.0,-999.0,79,-99.99,,,0.00,Acu-Link.com,2013-06-14 12:37:00,
2013-06-14 09:02:00,75.2,66.7,29.93,NNE,22,0.0,-999.0,75,-99.99,,,0.00,Acu-Link.com,2013-06-14 13:02:00,
2013-06-14 09:24:00,70.2,68.1,29.93,East,90,0.0,-999.0,93,-99.99,,,0.00,Acu-Link.com,2013-06-14 13:24:00,
2013-06-14 09:39:00,69.8,68.0,29.92,SSE,157,2.7,-999.0,94,-99.99,,,0.00,Acu-Link.com,2013-06-14 13:39:00,
2013-06-14 09:55:00,70.7,68.6,29.93,West,270,1.7,-999.0,93,-99.99,,,0.00,Acu-Link.com,2013-06-14 13:55:00,
2013-06-14 10:11:00,71.1,68.0,29.93,ESE,112,0.0,-999.0,90,-99.99,,,0.00,Acu-Link.com,2013-06-14 14:11:00,
2013-06-14 10:26:00,72.0,67.6,29.93,ESE,112,0.0,-999.0,86,-99.99,,,0.00,Acu-Link.com,2013-06-14 14:26:00,
2013-06-14 10:41:00,72.7,67.9,29.93,South,180,0.0,-999.0,85,-99.99,,,0.00,Acu-Link.com,2013-06-14 14:41:00,
2013-06-14 11:13:00,72.5,67.7,29.95,NNE,22,0.0,-999.0,85,-99.99,,,0.00,Acu-Link.com,2013-06-14 15:13:00,
2013-06-14 11:32:00,74.7,69.9,29.94,SSE,157,0.0,-999.0,85,-99.99,,,0.00,Acu-Link.com,2013-06-14 15:32:00,
2013-06-14 11:50:00,76.8,70.1,29.94,SSE,157,0.0,-999.0,80,-99.99,,,0.00,Acu-Link.com,2013-06-14 15:50:00,
2013-06-14 12:05:00,76.8,70.1,29.94,ESE,112,0.0,-999.0,80,-99.99,,,0.00,Acu-Link.com,2013-06-14 16:05:00,
2013-06-14 12:25:00,78.3,69.7,29.93,South,180,0.0,-999.0,75,-99.99,,,0.00,Acu-Link.com,2013-06-14 16:25:00,
2013-06-14 12:46:00,78.6,69.2,29.93,SW,225,1.1,-999.0,73,-99.99,,,0.00,Acu-Link.com,2013-06-14 16:46:00,
2013-06-14 13:03:00,76.1,69.5,29.93,SSE,157,0.0,-999.0,80,-99.99,,,0.00,Acu-Link.com,2013-06-14 17:03:00,
2013-06-14 13:50:00,79.3,69.9,29.91,North,0,0.0,-999.0,73,-99.99,,,0.00,Acu-Link.com,2013-06-14 17:50:00,
2013-06-14 14:06:00,79.9,68.8,29.90,North,0,0.0,-999.0,69,-99.99,,,0.00,Acu-Link.com,2013-06-14 18:06:00,
2013-06-14 14:21:00,79.3,66.9,29.91,North,0,0.0,-999.0,66,-99.99,,,0.00,Acu-Link.com,2013-06-14 18:21:00,
2013-06-14 14:36:00,77.9,66.5,29.91,ESE,112,0.0,-999.0,68,-99.99,,,0.00,Acu-Link.com,2013-06-14 18:36:00,
2013-06-14 14:56:00,78.4,66.5,29.92,ESE,112,0.0,-999.0,67,-99.99,,,0.00,Acu-Link.com,2013-06-14 18:56:00,
2013-06-14 15:17:00,79.9,67.5,29.91,NE,45,0.0,-999.0,66,-99.99,,,0.00,Acu-Link.com,2013-06-14 19:17:00,
2013-06-14 15:39:00,80.4,68.0,29.91,SE,135,0.0,-999.0,66,-99.99,,,0.00,Acu-Link.com,2013-06-14 19:39:00,
2013-06-14 16:06:00,80.8,70.5,29.91,SE,135,0.0,-999.0,71,-99.99,,,0.00,Acu-Link.com,2013-06-14 20:06:00,
2013-06-14 17:06:00,80.6,67.7,29.91,SSE,157,0.0,-999.0,65,-99.99,,,0.00,Acu-Link.com,2013-06-14 21:06:00,
2013-06-14 17:22:00,80.8,65.6,29.91,NNE,22,0.0,-999.0,60,-99.99,,,0.00,Acu-Link.com,2013-06-14 21:22:00,
2013-06-14 17:37:00,81.0,66.3,29.91,SSE,157,0.0,-999.0,61,-99.99,,,0.00,Acu-Link.com,2013-06-14 21:37:00,
2013-06-14 17:53:00,80.1,64.5,29.90,NNW,337,0.0,-999.0,59,-99.99,,,0.00,Acu-Link.com,2013-06-14 21:53:00,
2013-06-14 18:08:00,80.8,67.9,29.90,West,270,0.0,-999.0,65,-99.99,,,0.00,Acu-Link.com,2013-06-14 22:08:00,
2013-06-14 18:23:00,80.8,67.0,29.90,North,0,0.0,-999.0,63,-99.99,,,0.00,Acu-Link.com,2013-06-14 22:23:00,
2013-06-14 18:38:00,79.7,65.5,29.89,NNE,22,0.0,-999.0,62,-99.99,,,0.00,Acu-Link.com,2013-06-14 22:38:00,
2013-06-14 18:53:00,79.0,65.8,29.89,North,0,0.0,-999.0,64,-99.99,,,0.00,Acu-Link.com,2013-06-14 22:53:00,
2013-06-14 19:10:00,78.8,66.9,29.88,NNE,22,0.0,-999.0,67,-99.99,,,0.00,Acu-Link.com,2013-06-14 23:10:00,
2013-06-14 19:26:00,80.8,66.5,29.89,NNW,337,0.0,-999.0,62,-99.99,,,0.00,Acu-Link.com,2013-06-14 23:26:00,
2013-06-14 19:41:00,81.0,67.2,29.88,NNW,337,0.0,-999.0,63,-99.99,,,0.00,Acu-Link.com,2013-06-14 23:41:00,
2013-06-14 20:02:00,80.2,66.9,29.88,SE,135,0.0,-999.0,64,-99.99,,,0.00,Acu-Link.com,2013-06-15 00:02:00,
2013-06-14 20:17:00,77.9,66.0,29.89,ESE,112,0.0,-999.0,67,-99.99,,,0.00,Acu-Link.com,2013-06-15 00:17:00,
2013-06-14 20:33:00,75.2,65.5,29.88,ESE,112,0.0,-999.0,72,-99.99,,,0.00,Acu-Link.com,2013-06-15 00:33:00,
2013-06-14 20:48:00,72.9,65.6,29.88,ESE,112,0.0,-999.0,78,-99.99,,,0.00,Acu-Link.com,2013-06-15 00:48:00,
2013-06-14 21:03:00,71.1,68.0,29.88,ESE,112,0.0,-999.0,90,-99.99,,,0.00,Acu-Link.com,2013-06-15 01:03:00,
2013-06-14 21:18:00,69.8,69.2,29.88,ESE,112,0.0,-999.0,98,-99.99,,,0.00,Acu-Link.com,2013-06-15 01:18:00,
2013-06-14 21:34:00,67.8,67.2,29.88,ESE,112,0.0,-999.0,98,-99.99,,,0.00,Acu-Link.com,2013-06-15 01:34:00,
2013-06-14 21:49:00,66.7,66.1,29.89,ESE,112,0.0,-999.0,98,-99.99,,,0.00,Acu-Link.com,2013-06-15 01:49:00,
2013-06-14 22:04:00,65.7,65.1,29.89,ESE,112,0.0,-999.0,98,-99.99,,,0.00,Acu-Link.com,2013-06-15 02:04:00,
2013-06-14 22:19:00,64.9,64.3,29.89,ESE,112,0.0,-999.0,98,-99.99,,,0.00,Acu-Link.com,2013-06-15 02:19:00,
2013-06-14 22:35:00,64.0,63.4,29.90,ESE,112,0.0,-999.0,98,-99.99,,,0.00,Acu-Link.com,2013-06-15 02:35:00,
2013-06-14 22:50:00,63.5,62.9,29.90,ESE,112,0.0,-999.0,98,-99.99,,,0.00,Acu-Link.com,2013-06-15 02:50:00,
2013-06-14 23:05:00,63.0,62.4,29.90,ESE,112,0.0,-999.0,98,-99.99,,,0.00,Acu-Link.com,2013-06-15 03:05:00,
2013-06-14 23:20:00,62.4,61.8,29.91,West,270,0.0,-999.0,98,-99.99,,,0.00,Acu-Link.com,2013-06-15 03:20:00,
2013-06-14 23:36:00,62.2,61.6,29.91,West,270,0.0,-999.0,98,-99.99,,,0.00,Acu-Link.com,2013-06-15 03:36:00,
2013-06-14 23:51:00,61.9,61.3,29.92,West,270,0.0,-999.0,98,-99.99,,,0.00,Acu-Link.com,2013-06-15 03:51:00,